Time,TemperatureF,DewpointF,PressureIn,WindDirection,WindDirectionDegrees,WindSpeedMPH,WindSpeedGustMPH,Humidity,HourlyPrecipIn,Conditions,Clouds,dailyrainin,SoftwareType,DateUTC
2013-04-13 00:02:00,34.0,20.0,-100.00,WNW,290,11.0,14.0,57,-99.99,,,-99.99,,2013-04-13 05:02:00,
2013-04-13 00:12:00,34.0,20.0,-100.00,WNW,295,14.0,16.0,56,-99.99,,,-99.99,,2013-04-13 05:12:00,
2013-04-13 00:22:00,34.0,20.0,-100.00,WNW,295,14.0,16.0,56,-99.99,,,-99.99,,2013-04-13 05:22:00,
2013-04-13 00:32:00,34.0,18.0,-100.00,WNW,290,14.0,18.0,53,-99.99,,,-99.99,,2013-04-13 05:32:00,
2013-04-13 00:42:00,34.0,18.0,-100.00,WNW,290,14.0,18.0,53,-99.99,,,-99.99,,2013-04-13 05:42:00,
2013-04-13 00:52:00,34.0,19.0,-100.00,WNW,285,10.0,11.0,54,-99.99,,,-99.99,,2013-04-13 05:52:00,
2013-04-13 01:02:00,34.0,19.0,-100.00,WNW,285,10.0,11.0,54,-99.99,,,-99.99,,2013-04-13 06:02:00,
2013-04-13 01:12:00,34.0,19.0,-100.00,WNW,300,15.0,19.0,55,-99.99,,,-99.99,,2013-04-13 06:12:00,
2013-04-13 01:23:00,34.0,19.0,-100.00,WNW,285,13.0,15.0,55,-99.99,,,-99.99,,2013-04-13 06:23:00,
2013-04-13 01:34:00,34.0,19.0,-100.00,WNW,285,11.0,14.0,55,-99.99,,,-99.99,,2013-04-13 06:34:00,
2013-04-13 01:45:00,34.0,19.0,-100.00,WNW,285,11.0,14.0,55,-99.99,,,-99.99,,2013-04-13 06:45:00,
2013-04-13 01:53:00,34.0,19.0,-100.00,WNW,290,11.0,12.0,55,-99.99,,,-99.99,,2013-04-13 06:53:00,
2013-04-13 02:14:00,34.0,19.0,-100.00,West,280,11.0,14.0,56,-99.99,,,-99.99,,2013-04-13 07:14:00,
2013-04-13 02:23:00,33.0,19.0,-100.00,WNW,290,10.0,14.0,56,-99.99,,,-99.99,,2013-04-13 07:23:00,
2013-04-13 02:34:00,34.0,19.0,-100.00,WNW,300,14.0,19.0,56,-99.99,,,-99.99,,2013-04-13 07:34:00,
2013-04-13 02:44:00,34.0,19.0,-100.00,WNW,300,14.0,19.0,56,-99.99,,,-99.99,,2013-04-13 07:44:00,
2013-04-13 02:54:00,33.0,20.0,-100.00,NW,305,13.0,15.0,57,-99.99,,,-99.99,,2013-04-13 07:54:00,
2013-04-13 03:15:00,33.0,18.0,-100.00,WNW,290,11.0,15.0,54,-99.99,,,-99.99,,2013-04-13 08:15:00,
2013-04-13 03:24:00,33.0,18.0,-100.00,West,280,10.0,14.0,54,-99.99,,,-99.99,,2013-04-13 08:24:00,
2013-04-13 03:34:00,33.0,17.0,-100.00,WNW,290,12.0,16.0,51,-99.99,,,-99.99,,2013-04-13 08:34:00,
2013-04-13 03:45:00,33.0,17.0,-100.00,WNW,290,12.0,16.0,51,-99.99,,,-99.99,,2013-04-13 08:45:00,
2013-04-13 03:53:00,33.0,16.0,-100.00,WNW,300,12.0,15.0,50,-99.99,,,-99.99,,2013-04-13 08:53:00,
2013-04-13 04:04:00,33.0,16.0,-100.00,WNW,300,12.0,15.0,50,-99.99,,,-99.99,,2013-04-13 09:04:00,
2013-04-13 04:24:00,33.0,16.0,-100.00,WNW,300,12.0,14.0,50,-99.99,,,-99.99,,2013-04-13 09:24:00,
2013-04-13 04:35:00,32.0,17.0,-100.00,WNW,300,11.0,13.0,53,-99.99,,,-99.99,,2013-04-13 09:35:00,
2013-04-13 04:47:00,32.0,17.0,-100.00,WNW,300,11.0,13.0,53,-99.99,,,-99.99,,2013-04-13 09:47:00,
2013-04-13 04:53:00,32.0,17.0,-100.00,WNW,295,9.0,11.0,54,-99.99,,,-99.99,,2013-04-13 09:53:00,
2013-04-13 05:05:00,32.0,17.0,-100.00,WNW,295,9.0,11.0,54,-99.99,,,-99.99,,2013-04-13 10:05:00,
2013-04-13 05:15:00,31.0,17.0,-100.00,WNW,290,8.0,10.0,55,-99.99,,,-99.99,,2013-04-13 10:15:00,
2013-04-13 05:24:00,31.0,17.0,-100.00,WNW,285,10.0,12.0,56,-99.99,,,-99.99,,2013-04-13 10:24:00,
2013-04-13 05:36:00,31.0,18.0,-100.00,WNW,285,7.0,10.0,58,-99.99,,,-99.99,,2013-04-13 10:36:00,
2013-04-13 05:45:00,31.0,18.0,-100.00,WNW,285,7.0,10.0,58,-99.99,,,-99.99,,2013-04-13 10:45:00,
2013-04-13 06:05:00,31.0,17.0,-100.00,West,265,9.0,11.0,57,-99.99,,,-99.99,,2013-04-13 11:05:00,
2013-04-13 06:13:00,31.0,17.0,-100.00,West,270,8.0,11.0,57,-99.99,,,-99.99,,2013-04-13 11:13:00,
2013-04-13 06:23:00,31.0,17.0,-100.00,West,265,7.0,11.0,58,-99.99,,,-99.99,,2013-04-13 11:23:00,
2013-04-13 06:44:00,30.0,18.0,-100.00,West,260,7.0,9.0,61,-99.99,,,-99.99,,2013-04-13 11:44:00,
2013-04-13 06:53:00,30.0,19.0,-100.00,West,265,7.0,9.0,64,-99.99,,,-99.99,,2013-04-13 11:53:00,
2013-04-13 07:08:00,30.0,19.0,-100.00,West,265,7.0,9.0,64,-99.99,,,-99.99,,2013-04-13 12:08:00,
2013-04-13 07:14:00,30.0,20.0,-100.00,West,275,7.0,9.0,65,-99.99,,,-99.99,,2013-04-13 12:14:00,
2013-04-13 07:24:00,30.0,20.0,-100.00,West,275,4.0,6.0,66,-99.99,,,-99.99,,2013-04-13 12:24:00,
2013-04-13 07:35:00,31.0,21.0,-100.00,West,260,6.0,7.0,65,-99.99,,,-99.99,,2013-04-13 12:35:00,
2013-04-13 07:45:00,31.0,21.0,-100.00,West,260,6.0,7.0,65,-99.99,,,-99.99,,2013-04-13 12:45:00,
2013-04-13 07:53:00,32.0,21.0,-100.00,West,280,7.0,9.0,65,-99.99,,,-99.99,,2013-04-13 12:53:00,
2013-04-13 08:05:00,32.0,21.0,-100.00,West,280,7.0,9.0,65,-99.99,,,-99.99,,2013-04-13 13:05:00,
2013-04-13 08:14:00,32.0,21.0,-100.00,West,270,8.0,12.0,64,-99.99,,,-99.99,,2013-04-13 13:14:00,
2013-04-13 08:24:00,33.0,21.0,-100.00,West,275,10.0,13.0,63,-99.99,,,-99.99,,2013-04-13 13:24:00,
2013-04-13 08:34:00,33.0,22.0,-100.00,WNW,295,9.0,11.0,63,-99.99,,,-99.99,,2013-04-13 13:34:00,
2013-04-13 08:45:00,33.0,22.0,-100.00,WNW,295,9.0,11.0,63,-99.99,,,-99.99,,2013-04-13 13:45:00,
2013-04-13 08:53:00,34.0,22.0,-100.00,WNW,290,15.0,18.0,60,-99.99,,,-99.99,,2013-04-13 13:53:00,
2013-04-13 09:04:00,34.0,22.0,-100.00,WNW,290,15.0,18.0,60,-99.99,,,-99.99,,2013-04-13 14:04:00,
2013-04-13 09:13:00,35.0,22.0,-100.00,WNW,300,16.0,19.0,59,-99.99,,,-99.99,,2013-04-13 14:13:00,
2013-04-13 09:23:00,37.0,23.0,-100.00,WNW,300,10.0,11.0,57,-99.99,,,-99.99,,2013-04-13 14:23:00,
2013-04-13 09:36:00,37.0,22.0,-100.00,NW,310,16.0,17.0,54,-99.99,,,-99.99,,2013-04-13 14:36:00,
2013-04-13 09:45:00,37.0,22.0,-100.00,NW,310,16.0,17.0,54,-99.99,,,-99.99,,2013-04-13 14:45:00,
2013-04-13 09:54:00,37.0,21.0,-100.00,NW,325,17.0,19.0,53,-99.99,,,-99.99,,2013-04-13 14:54:00,
2013-04-13 10:04:00,37.0,21.0,-100.00,NW,325,17.0,19.0,53,-99.99,,,-99.99,,2013-04-13 15:04:00,
2013-04-13 10:14:00,38.0,22.0,-100.00,NW,305,11.0,13.0,52,-99.99,,,-99.99,,2013-04-13 15:14:00,
2013-04-13 10:27:00,38.0,21.0,-100.00,West,280,15.0,18.0,50,-99.99,,,-99.99,,2013-04-13 15:27:00,
2013-04-13 10:35:00,39.0,21.0,-100.00,NW,305,15.0,17.0,49,-99.99,,,-99.99,,2013-04-13 15:35:00,
2013-04-13 10:43:00,39.0,21.0,-100.00,NW,305,15.0,17.0,49,-99.99,,,-99.99,,2013-04-13 15:43:00,
2013-04-13 10:54:00,39.0,21.0,-100.00,WNW,285,14.0,16.0,48,-99.99,,,-99.99,,2013-04-13 15:54:00,
2013-04-13 11:05:00,39.0,21.0,-100.00,WNW,285,14.0,16.0,48,-99.99,,,-99.99,,2013-04-13 16:05:00,
2013-04-13 11:14:00,41.0,22.0,-100.00,NW,310,12.0,16.0,47,-99.99,,,-99.99,,2013-04-13 16:14:00,
2013-04-13 11:24:00,41.0,21.0,-100.00,NW,310,11.0,15.0,45,-99.99,,,-99.99,,2013-04-13 16:24:00,
2013-04-13 11:35:00,42.0,22.0,-100.00,NW,320,11.0,13.0,44,-99.99,,,-99.99,,2013-04-13 16:35:00,
2013-04-13 11:44:00,42.0,22.0,-100.00,NW,320,11.0,13.0,44,-99.99,,,-99.99,,2013-04-13 16:44:00,
2013-04-13 11:53:00,43.0,22.0,-100.00,NW,315,9.0,11.0,44,-99.99,,,-99.99,,2013-04-13 16:53:00,
2013-04-13 12:05:00,43.0,22.0,-100.00,NW,315,9.0,11.0,44,-99.99,,,-99.99,,2013-04-13 17:05:00,
2013-04-13 12:20:00,43.0,23.0,-100.00,NW,325,4.0,5.0,44,-99.99,,,-99.99,,2013-04-13 17:20:00,
2013-04-13 12:37:00,46.0,22.0,-100.00,WNW,300,7.0,12.0,39,-99.99,,,-99.99,,2013-04-13 17:37:00,
2013-04-13 12:43:00,46.0,22.0,-100.00,WNW,300,7.0,12.0,39,-99.99,,,-99.99,,2013-04-13 17:43:00,
2013-04-13 12:57:00,46.0,22.0,-100.00,SW,225,3.0,4.0,39,-99.99,,,-99.99,,2013-04-13 17:57:00,
2013-04-13 13:05:00,46.0,22.0,-100.00,SW,225,3.0,4.0,39,-99.99,,,-99.99,,2013-04-13 18:05:00,
2013-04-13 13:14:00,47.0,22.0,-100.00,WNW,290,7.0,9.0,37,-99.99,,,-99.99,,2013-04-13 18:14:00,
2013-04-13 13:24:00,46.0,21.0,-100.00,WNW,290,9.0,11.0,37,-99.99,,,-99.99,,2013-04-13 18:24:00,
2013-04-13 13:32:00,48.0,22.0,-100.00,SW,235,4.0,8.0,36,-99.99,,,-99.99,,2013-04-13 18:32:00,
2013-04-13 13:42:00,48.0,22.0,-100.00,SW,235,4.0,8.0,36,-99.99,,,-99.99,,2013-04-13 18:42:00,
2013-04-13 13:52:00,47.0,22.0,-100.00,NW,320,1.0,2.0,37,-99.99,,,-99.99,,2013-04-13 18:52:00,
2013-04-13 14:03:00,47.0,22.0,-100.00,NW,320,1.0,2.0,37,-99.99,,,-99.99,,2013-04-13 19:03:00,
2013-04-13 14:12:00,50.0,24.0,-100.00,NW,325,7.0,9.0,36,-99.99,,,-99.99,,2013-04-13 19:12:00,
2013-04-13 14:22:00,50.0,23.0,-100.00,WNW,295,7.0,9.0,35,-99.99,,,-99.99,,2013-04-13 19:22:00,
2013-04-13 14:32:00,51.0,24.0,-100.00,WNW,290,6.0,8.0,35,-99.99,,,-99.99,,2013-04-13 19:32:00,
2013-04-13 14:42:00,51.0,24.0,-100.00,WNW,290,6.0,8.0,35,-99.99,,,-99.99,,2013-04-13 19:42:00,
2013-04-13 14:52:00,51.0,24.0,-100.00,NW,305,6.0,9.0,34,-99.99,,,-99.99,,2013-04-13 19:52:00,
2013-04-13 15:02:00,51.0,24.0,-100.00,NW,305,6.0,9.0,34,-99.99,,,-99.99,,2013-04-13 20:02:00,
2013-04-13 15:12:00,51.0,23.0,-100.00,WSW,250,11.0,16.0,34,-99.99,,,-99.99,,2013-04-13 20:12:00,
2013-04-13 15:22:00,51.0,24.0,-100.00,West,280,7.0,9.0,35,-99.99,,,-99.99,,2013-04-13 20:22:00,
2013-04-13 15:32:00,52.0,24.0,-100.00,WNW,300,2.0,4.0,34,-99.99,,,-99.99,,2013-04-13 20:32:00,
2013-04-13 15:42:00,52.0,24.0,-100.00,WNW,300,2.0,4.0,34,-99.99,,,-99.99,,2013-04-13 20:42:00,
2013-04-13 15:52:00,51.0,23.0,-100.00,WNW,300,2.0,4.0,34,-99.99,,,-99.99,,2013-04-13 20:52:00,
2013-04-13 16:02:00,51.0,23.0,-100.00,WNW,300,2.0,4.0,34,-99.99,,,-99.99,,2013-04-13 21:02:00,
2013-04-13 16:12:00,51.0,23.0,-100.00,WNW,285,4.0,5.0,34,-99.99,,,-99.99,,2013-04-13 21:12:00,
2013-04-13 16:22:00,50.0,23.0,-100.00,SSW,195,4.0,6.0,34,-99.99,,,-99.99,,2013-04-13 21:22:00,
2013-04-13 16:32:00,50.0,23.0,-100.00,SW,235,4.0,6.0,35,-99.99,,,-99.99,,2013-04-13 21:32:00,
2013-04-13 16:43:00,50.0,23.0,-100.00,SW,235,4.0,6.0,35,-99.99,,,-99.99,,2013-04-13 21:43:00,
2013-04-13 16:52:00,50.0,23.0,-100.00,SW,215,4.0,4.0,35,-99.99,,,-99.99,,2013-04-13 21:52:00,
2013-04-13 17:03:00,50.0,23.0,-100.00,SW,215,4.0,4.0,35,-99.99,,,-99.99,,2013-04-13 22:03:00,
2013-04-13 17:12:00,50.0,23.0,-100.00,SSE,150,3.0,4.0,35,-99.99,,,-99.99,,2013-04-13 22:12:00,
2013-04-13 17:22:00,51.0,24.0,-100.00,ESE,120,2.0,4.0,35,-99.99,,,-99.99,,2013-04-13 22:22:00,
2013-04-13 17:33:00,51.0,24.0,-100.00,ESE,120,4.0,6.0,35,-99.99,,,-99.99,,2013-04-13 22:33:00,
2013-04-13 17:42:00,51.0,24.0,-100.00,ESE,120,4.0,6.0,35,-99.99,,,-99.99,,2013-04-13 22:42:00,
2013-04-13 17:52:00,51.0,24.0,-100.00,SE,130,7.0,9.0,35,-99.99,,,-99.99,,2013-04-13 22:52:00,
2013-04-13 18:02:00,51.0,24.0,-100.00,SE,130,7.0,9.0,35,-99.99,,,-99.99,,2013-04-13 23:02:00,
2013-04-13 18:12:00,51.0,25.0,-100.00,SE,125,9.0,11.0,36,-99.99,,,-99.99,,2013-04-13 23:12:00,
2013-04-13 18:22:00,50.0,24.0,-100.00,SE,130,10.0,12.0,36,-99.99,,,-99.99,,2013-04-13 23:22:00,
2013-04-13 18:32:00,50.0,24.0,-100.00,SE,130,9.0,10.0,36,-99.99,,,-99.99,,2013-04-13 23:32:00,
2013-04-13 18:41:00,50.0,24.0,-100.00,SE,130,9.0,10.0,36,-99.99,,,-99.99,,2013-04-13 23:41:00,
2013-04-13 18:52:00,50.0,25.0,-100.00,SE,130,9.0,10.0,37,-99.99,,,-99.99,,2013-04-13 23:52:00,
2013-04-13 19:02:00,50.0,25.0,-100.00,SE,130,9.0,10.0,37,-99.99,,,-99.99,,2013-04-14 00:02:00,
2013-04-13 19:12:00,50.0,25.0,-100.00,SSE,150,7.0,9.0,37,-99.99,,,-99.99,,2013-04-14 00:12:00,
2013-04-13 19:22:00,50.0,24.0,-100.00,SSE,165,7.0,9.0,37,-99.99,,,-99.99,,2013-04-14 00:22:00,
2013-04-13 19:32:00,50.0,25.0,-100.00,SE,135,9.0,11.0,39,-99.99,,,-99.99,,2013-04-14 00:32:00,
2013-04-13 19:42:00,50.0,25.0,-100.00,SE,135,9.0,11.0,39,-99.99,,,-99.99,,2013-04-14 00:42:00,
2013-04-13 19:52:00,49.0,26.0,-100.00,SE,135,10.0,12.0,40,-99.99,,,-99.99,,2013-04-14 00:52:00,
2013-04-13 20:02:00,49.0,26.0,-100.00,SE,135,10.0,12.0,40,-99.99,,,-99.99,,2013-04-14 01:02:00,
2013-04-13 20:12:00,49.0,26.0,-100.00,SE,130,6.0,7.0,41,-99.99,,,-99.99,,2013-04-14 01:12:00,
2013-04-13 20:22:00,49.0,26.0,-100.00,SE,130,7.0,9.0,41,-99.99,,,-99.99,,2013-04-14 01:22:00,
2013-04-13 20:32:00,49.0,27.0,-100.00,SE,125,7.0,9.0,43,-99.99,,,-99.99,,2013-04-14 01:32:00,
2013-04-13 20:42:00,49.0,27.0,-100.00,SE,125,7.0,9.0,43,-99.99,,,-99.99,,2013-04-14 01:42:00,
2013-04-13 20:52:00,48.0,27.0,-100.00,SE,135,4.0,6.0,44,-99.99,,,-99.99,,2013-04-14 01:52:00,
2013-04-13 21:02:00,48.0,27.0,-100.00,SE,135,4.0,6.0,44,-99.99,,,-99.99,,2013-04-14 02:02:00,
2013-04-13 21:12:00,48.0,27.0,-100.00,SE,135,4.0,6.0,44,-99.99,,,-99.99,,2013-04-14 02:12:00,
2013-04-13 21:22:00,48.0,28.0,-100.00,ESE,120,8.0,9.0,45,-99.99,,,-99.99,,2013-04-14 02:22:00,
2013-04-13 21:32:00,48.0,28.0,-100.00,East,100,7.0,8.0,46,-99.99,,,-99.99,,2013-04-14 02:32:00,
2013-04-13 21:43:00,48.0,28.0,-100.00,East,100,7.0,8.0,46,-99.99,,,-99.99,,2013-04-14 02:43:00,
2013-04-13 21:53:00,48.0,29.0,-100.00,East,95,9.0,11.0,47,-99.99,,,-99.99,,2013-04-14 02:53:00,
2013-04-13 22:02:00,48.0,29.0,-100.00,East,95,9.0,11.0,47,-99.99,,,-99.99,,2013-04-14 03:02:00,
2013-04-13 22:12:00,48.0,29.0,-100.00,East,100,11.0,12.0,48,-99.99,,,-99.99,,2013-04-14 03:12:00,
2013-04-13 22:22:00,48.0,29.0,-100.00,East,95,6.0,8.0,48,-99.99,,,-99.99,,2013-04-14 03:22:00,
2013-04-13 22:33:00,48.0,29.0,-100.00,ESE,105,6.0,8.0,48,-99.99,,,-99.99,,2013-04-14 03:33:00,
2013-04-13 22:42:00,48.0,29.0,-100.00,ESE,105,6.0,8.0,48,-99.99,,,-99.99,,2013-04-14 03:42:00,
2013-04-13 22:53:00,48.0,29.0,-100.00,East,100,11.0,13.0,49,-99.99,,,-99.99,,2013-04-14 03:53:00,
2013-04-13 23:02:00,48.0,29.0,-100.00,East,100,11.0,13.0,49,-99.99,,,-99.99,,2013-04-14 04:02:00,
2013-04-13 23:12:00,48.0,29.0,-100.00,East,100,11.0,13.0,49,-99.99,,,-99.99,,2013-04-14 04:12:00,
2013-04-13 23:23:00,48.0,29.0,-100.00,ESE,110,8.0,12.0,49,-99.99,,,-99.99,,2013-04-14 04:23:00,
2013-04-13 23:32:00,48.0,29.0,-100.00,ESE,105,11.0,14.0,49,-99.99,,,-99.99,,2013-04-14 04:32:00,
2013-04-13 23:42:00,48.0,29.0,-100.00,ESE,105,11.0,14.0,49,-99.99,,,-99.99,,2013-04-14 04:42:00,
2013-04-13 23:52:00,47.0,29.0,-100.00,ESE,105,12.0,14.0,49,-99.99,,,-99.99,,2013-04-14 04:52:00,